TimeMST,TemperatureF,Dew PointF,Humidity,Sea Level PressureIn,VisibilityMPH,Wind Direction,Wind SpeedMPH,Gust SpeedMPH,PrecipitationIn,Events,Conditions,WindDirDegrees,DateUTC
12:53 AM,27.0,10.9,51,29.53,10.0,Variable,5.8,16.1,N/A,,Overcast,0,2014-01-04 07:53:00
1:53 AM,25.0,12.0,58,29.54,10.0,Calm,Calm,-,N/A,,Overcast,0,2014-01-04 08:53:00
2:53 AM,28.0,7.0,41,29.47,10.0,WNW,16.1,20.7,N/A,,Mostly Cloudy,290,2014-01-04 09:53:00
3:53 AM,26.1,10.9,53,29.50,4.0,WNW,19.6,29.9,0.00,Snow,Light Snow,300,2014-01-04 10:53:00
4:39 AM,24.1,16.0,71,29.69,2.5,WSW,6.9,-,0.00,Snow,Light Snow,250,2014-01-04 11:39:00
4:53 AM,21.9,18.0,85,29.54,1.2,NNW,5.8,-,0.01,Snow,Light Snow,330,2014-01-04 11:53:00
5:20 AM,21.9,19.0,89,29.67,0.8,NNE,8.1,-,0.01,Snow,Light Snow,20,2014-01-04 12:20:00
5:39 AM,21.0,19.0,92,29.67,0.5,NNW,5.8,-,0.03,Fog-Snow,Snow,330,2014-01-04 12:39:00
5:53 AM,21.0,19.0,92,29.55,1.0,North,6.9,-,0.04,Snow,Light Snow,360,2014-01-04 12:53:00
5:57 AM,21.0,18.0,88,29.68,2.0,NNE,5.8,-,0.00,Snow,Light Snow,20,2014-01-04 12:57:00
6:05 AM,21.0,18.0,88,29.67,3.0,North,8.1,-,0.00,Snow,Light Snow,10,2014-01-04 13:05:00
6:12 AM,21.0,17.1,85,29.67,2.5,North,10.4,-,0.00,Snow,Light Snow,10,2014-01-04 13:12:00
6:19 AM,21.0,17.1,85,29.67,3.0,North,9.2,-,0.00,Snow,Light Snow,10,2014-01-04 13:19:00
6:33 AM,21.0,16.0,81,29.67,5.0,NW,15.0,21.9,0.00,Snow,Light Snow,310,2014-01-04 13:33:00
6:53 AM,21.9,12.9,68,29.53,9.0,WNW,18.4,28.8,0.00,,Overcast,290,2014-01-04 13:53:00
7:45 AM,19.9,12.9,74,29.68,1.5,NW,16.1,27.6,0.00,Snow,Light Snow,320,2014-01-04 14:45:00
7:53 AM,19.0,15.1,85,29.56,0.8,NW,12.7,20.7,0.00,Snow,Light Snow,320,2014-01-04 14:53:00
8:16 AM,19.0,15.1,85,29.68,0.5,NW,12.7,-,0.01,Fog-Snow,Snow,310,2014-01-04 15:16:00
8:35 AM,17.1,12.0,81,29.68,1.5,North,8.1,-,0.01,Snow,Light Snow,10,2014-01-04 15:35:00
8:42 AM,18.0,12.0,78,29.67,2.0,NNE,6.9,-,0.01,Snow,Light Snow,30,2014-01-04 15:42:00
8:48 AM,17.6,12.2,79,29.66,7.0,NNE,5.8,-,0.01,Snow,Light Snow,20,2014-01-04 15:48:00
8:53 AM,18.0,12.0,78,29.55,9.0,NNE,6.9,-,0.01,,Overcast,30,2014-01-04 15:53:00
9:39 AM,15.1,10.0,80,29.66,1.8,North,20.7,26.5,0.00,Snow,Light Snow,350,2014-01-04 16:39:00
9:46 AM,14.0,8.1,77,29.68,0.8,NNW,19.6,28.8,0.00,Snow,Light Snow,340,2014-01-04 16:46:00
9:53 AM,12.0,7.0,80,29.63,0.2,North,27.6,41.4,0.00,Snow,Heavy Snow,360,2014-01-04 16:53:00
10:07 AM,10.9,8.1,88,29.69,0.2,North,21.9,33.4,0.01,Fog-Snow,Snow,10,2014-01-04 17:07:00
10:17 AM,12.0,8.1,84,29.69,0.5,North,13.8,-,0.01,Fog-Snow,Light Snow,10,2014-01-04 17:17:00
10:27 AM,12.9,8.1,81,29.69,1.0,North,10.4,-,0.01,Snow,Light Snow,360,2014-01-04 17:27:00
10:37 AM,12.9,8.1,81,29.69,0.8,North,9.2,-,0.02,Snow,Light Snow,350,2014-01-04 17:37:00
10:50 AM,14.0,8.6,79,29.67,1.0,NNE,8.1,-,0.02,Snow,Light Snow,30,2014-01-04 17:50:00
10:53 AM,15.1,9.0,77,29.59,1.2,NNE,8.1,-,0.02,Snow,Light Snow,30,2014-01-04 17:53:00
11:03 AM,16.0,8.1,71,29.66,2.5,NE,8.1,-,0.00,Snow,Light Snow,40,2014-01-04 18:03:00
11:24 AM,15.1,9.0,77,29.66,1.2,NNW,8.1,-,0.00,Snow,Light Snow,340,2014-01-04 18:24:00
11:37 AM,14.0,9.0,80,29.65,0.5,North,11.5,-,0.01,Snow,Snow,10,2014-01-04 18:37:00
11:48 AM,15.8,6.8,68,29.65,2.0,North,10.4,17.3,0.01,Snow,Light Snow,350,2014-01-04 18:48:00
11:49 AM,15.1,7.0,70,29.58,2.0,NNW,10.4,17.3,0.01,Snow,Light Snow,330,2014-01-04 18:49:00
12:03 PM,15.1,8.1,74,29.64,1.2,NNW,13.8,21.9,0.00,Snow,Light Snow,330,2014-01-04 19:03:00
12:16 PM,14.0,8.1,77,29.64,0.8,NW,12.7,24.2,0.00,Snow,Light Snow,320,2014-01-04 19:16:00
12:28 PM,14.0,8.1,77,29.64,1.0,NNW,9.2,-,0.00,Snow,Light Snow,330,2014-01-04 19:28:00
12:53 PM,14.0,6.1,71,29.56,3.0,NNW,8.1,-,0.00,Snow,Light Snow,330,2014-01-04 19:53:00
1:12 PM,14.0,3.9,64,29.64,8.0,West,15.0,20.7,0.00,Snow,Light Snow,280,2014-01-04 20:12:00
1:44 PM,12.9,6.1,74,29.67,1.2,NW,16.1,21.9,0.00,Snow,Light Snow,320,2014-01-04 20:44:00
1:53 PM,10.9,5.0,77,29.63,0.5,NW,18.4,31.1,0.00,Snow,Snow,310,2014-01-04 20:53:00
2:02 PM,10.9,3.0,70,29.68,1.5,WNW,18.4,29.9,0.00,Snow,Light Snow,300,2014-01-04 21:02:00
2:22 PM,12.0,-0.0,59,29.70,3.0,NW,19.6,29.9,0.00,Snow,Light Snow,310,2014-01-04 21:22:00
2:50 PM,10.4,-2.2,57,29.70,6.0,WNW,18.4,26.5,0.00,Snow,Blowing Snow,290,2014-01-04 21:50:00
2:53 PM,10.0,-2.9,56,29.66,8.0,WNW,17.3,26.5,0.00,,Mostly Cloudy,300,2014-01-04 21:53:00
3:12 PM,10.9,1.9,67,29.72,1.8,NW,16.1,24.2,0.00,Snow,Light Snow,320,2014-01-04 22:12:00
3:15 PM,10.0,3.0,73,29.73,0.8,NW,17.3,24.2,0.00,Snow,Light Snow,310,2014-01-04 22:15:00
3:31 PM,8.1,3.0,80,29.73,0.5,WNW,11.5,-,0.00,Snow,Snow,300,2014-01-04 22:31:00
3:38 PM,8.1,1.0,73,29.73,1.8,WNW,11.5,-,0.00,Snow,Light Snow,300,2014-01-04 22:38:00
3:40 PM,8.1,1.0,73,29.73,3.0,WNW,13.8,-,0.00,Snow,Light Snow,290,2014-01-04 22:40:00
3:53 PM,8.1,1.0,73,29.72,4.0,WNW,11.5,-,0.00,Snow,Light Snow,290,2014-01-04 22:53:00
4:05 PM,8.1,1.0,73,29.75,1.8,North,10.4,19.6,0.00,Snow,Light Snow,350,2014-01-04 23:05:00
4:20 PM,7.0,1.9,80,29.75,3.0,Calm,Calm,-,0.00,Snow,Light Snow,0,2014-01-04 23:20:00
4:32 PM,7.0,1.0,77,29.76,0.8,WNW,12.7,16.1,0.00,Snow,Light Snow,300,2014-01-04 23:32:00
4:48 PM,6.8,3.2,85,29.76,2.0,NW,4.6,-,0.01,Snow,Light Snow,310,2014-01-04 23:48:00
4:53 PM,7.0,3.0,84,29.77,2.0,NNW,4.6,-,0.01,Snow,Light Snow,330,2014-01-04 23:53:00
5:02 PM,7.0,1.9,80,29.76,1.8,NW,4.6,-,0.00,Snow,Light Snow,320,2014-01-05 00:02:00
5:11 PM,6.1,1.9,83,29.77,2.5,North,4.6,-,0.00,Snow,Light Snow,360,2014-01-05 00:11:00
5:18 PM,6.1,1.9,83,29.77,4.0,North,6.9,-,0.00,Snow,Light Snow,350,2014-01-05 00:18:00
5:38 PM,6.1,1.9,83,29.78,1.8,North,15.0,-,0.00,Snow,Light Snow,350,2014-01-05 00:38:00
5:53 PM,6.1,1.0,80,29.81,1.8,North,12.7,-,0.00,Snow,Light Snow,10,2014-01-05 00:53:00
6:12 PM,5.0,-2.0,73,29.80,3.0,North,16.1,24.2,0.00,Snow,Light Snow,350,2014-01-05 01:12:00
6:22 PM,3.9,-0.9,80,29.80,2.5,North,15.0,-,0.00,Snow,Light Snow,350,2014-01-05 01:22:00
6:32 PM,3.9,-0.9,80,29.81,6.0,North,13.8,-,0.00,,Haze,360,2014-01-05 01:32:00
6:51 PM,3.2,-0.4,85,29.81,2.5,NNW,10.4,-,0.00,Snow,Light Snow,340,2014-01-05 01:51:00
6:52 PM,3.9,-0.9,80,29.85,2.5,NNW,10.4,-,0.00,Snow,Light Snow,340,2014-01-05 01:52:00
7:00 PM,3.9,-0.9,80,29.82,3.0,NNW,10.4,-,0.00,Snow,Light Snow,340,2014-01-05 02:00:00
7:25 PM,3.9,-2.0,76,29.82,1.8,NNW,8.1,18.4,0.00,Snow,Light Snow,330,2014-01-05 02:25:00
7:41 PM,3.9,-2.0,76,29.82,3.0,North,8.1,-,0.01,Snow,Light Snow,350,2014-01-05 02:41:00
7:53 PM,3.0,-2.0,80,29.90,6.0,NNW,8.1,-,0.01,Snow,Light Snow,340,2014-01-05 02:53:00
8:53 PM,-0.0,-7.1,72,29.94,10.0,NW,5.8,-,0.00,,Overcast,320,2014-01-05 03:53:00
9:11 PM,-0.9,-7.1,75,29.84,10.0,North,4.6,-,N/A,,Overcast,350,2014-01-05 04:11:00
9:19 PM,-0.0,-7.1,72,29.85,10.0,NNW,4.6,-,N/A,,Overcast,340,2014-01-05 04:19:00
9:50 PM,-2.2,-7.6,78,29.85,10.0,North,5.8,-,N/A,,Overcast,10,2014-01-05 04:50:00
9:53 PM,-2.9,-8.0,79,30.00,10.0,North,4.6,-,N/A,,Overcast,360,2014-01-05 04:53:00
10:25 PM,-4.0,-9.0,79,29.84,10.0,North,8.1,-,N/A,,Overcast,10,2014-01-05 05:25:00
10:53 PM,-4.0,-9.0,79,29.98,10.0,North,4.6,-,N/A,,Mostly Cloudy,10,2014-01-05 05:53:00
11:53 PM,-5.1,-9.0,83,29.98,10.0,NE,4.6,-,N/A,,Overcast,40,2014-01-05 06:53:00